DW1590 Weather Reports


time (UTC)temp
F
wind
direction
speed
knots
gust
knots
rain 1hr
in
rain 24hr
in
rain mn
in
humidity
%
barometer
mb
20260507104553 54 333 0.0 0.0 0.00 0.00 0.14 100 1011.4
20260507103054 54 333 0.0 0.0 0.00 0.00 0.14 100 1011.3
20260507101547 54 333 0.0 0.0 0.00 0.00 0.14 100 1011.0
20260507100039 54 333 0.0 0.0 0.00 0.00 0.13 100 1010.9
20260507094542 54 334 0.0 0.0 0.00 0.00 0.13 100 1010.9
20260507093030 54 334 0.0 0.0 0.00 0.00 0.13 100 1010.7
20260507091532 54 335 0.0 0.0 0.00 0.00 0.13 100 1010.9
20260507090021 54 334 0.0 0.0 0.00 0.00 0.13 100 1010.9
20260507084520 54 334 0.0 0.0 0.00 0.00 0.13 100 1010.4
20260507083013 54 334 0.9 0.0 0.00 0.00 0.13 100 1010.3
20260507081509 54 355 0.9 0.0 0.00 0.00 0.13 100 1010.0
20260507080005 54 342 2.6 0.0 0.00 0.00 0.13 100 1009.9
20260507074604 55 355 2.6 0.0 0.00 0.00 0.13 100 1009.9
20260507073107 55 9 3.5 0.0 0.00 0.00 0.13 100 1009.8
20260507071552 55 338 4.3 0.0 0.00 0.00 0.13 100 1009.7
20260507070056 56 341 3.5 0.0 0.00 0.00 0.13 100 1009.7
20260507064549 56 355 1.7 0.0 0.00 0.00 0.13 100 1009.8
20260507063038 57 346 3.5 0.0 0.00 0.00 0.13 100 1009.7
20260507061537 57 26 3.5 0.0 0.00 0.00 0.13 100 1009.5
20260507060029 58 344 2.6 0.0 0.00 0.00 0.13 100 1009.8
20260507054525 59 318 2.6 0.0 0.00 0.00 0.13 100 1009.9
20260507053021 60 323 3.5 0.0 0.00 0.00 0.12 100 1009.8
20260507051517 60 309 2.6 0.0 0.00 0.00 0.11 100 1009.9
20260507050021 61 311 3.5 0.0 0.00 0.00 0.04 100 1010.0
20260507044507 62 284 4.3 0.0 0.00 0.00 0.00 100 1009.9
20260507043003 62 309 4.3 0.0 0.00 0.00 0.00 100 1009.8
20260507041559 63 340 4.3 0.0 0.00 0.00 0.00 6 1009.8
20260507034556 63 355 3.5 0.0 0.00 0.00 0.11 12 1009.2
20260507033100 64 296 3.5 0.0 0.00 0.00 0.11 9 1009.3
20260507031556 64 355 3.5 0.0 0.00 0.00 0.11 100 1009.2
20260507030100 65 329 3.5 0.0 0.00 0.00 0.11 100 1009.1
20260507024548 66 13 4.3 0.0 0.00 0.00 0.11 100 1008.6
20260507023031 67 296 4.3 0.0 0.00 0.00 0.11 100 1008.7
20260507021526 67 322 3.5 0.0 0.00 0.00 0.11 100 1008.1
20260507020024 67 348 4.3 0.0 0.00 0.00 0.11 100 1008.2
20260507014521 67 265 1.7 0.0 0.00 0.00 0.11 100 1008.3
20260507013016 67 275 0.9 0.0 0.00 0.00 0.11 100 1008.7
20260507011524 68 338 0.9 0.0 0.00 0.00 0.11 100 1008.6
20260507010004 68 215 0.0 0.0 0.00 0.00 0.11 100 1008.3
20260507004600 68 211 0.0 0.0 0.00 0.00 0.11 100 1008.2
20260507003101 68 209 0.9 0.0 0.00 0.00 0.11 100 1007.9
20260507001552 68 205 0.9 0.0 0.00 0.00 0.11 100 1007.7
20260507000049 69 190 0.9 0.0 0.00 0.00 0.11 100 1007.8
20260506234552 69 107 0.0 0.0 0.00 0.00 0.11 100 1007.6
20260506233047 69 196 0.9 0.0 0.00 0.00 0.11 100 1007.6
20260506231535 69 200 0.9 0.0 0.00 0.00 0.11 100 1007.0
20260506230029 70 162 0.9 0.0 0.00 0.00 0.11 100 1007.1
20260506224526 70 198 0.9 0.0 0.00 0.00 0.11 100 1006.9
20260506223021 69 177 1.7 0.0 0.00 0.00 0.11 100 1007.0
20260506221516 69 200 3.5 0.0 0.00 0.00 0.11 100 1007.0
20260506220012 70 208 1.7 0.0 0.00 0.00 0.11 100 1007.1
20260506214507 70 183 3.5 0.0 0.00 0.00 0.11 100 1007.0
20260506213003 70 192 1.7 0.0 0.00 0.00 0.11 100 1006.8
20260506211559 70 225 1.7 0.0 0.00 0.00 0.11 100 1006.8
20260506210054 70 201 2.6 0.0 0.00 0.00 0.11 100 1006.7
20260506204551 69 208 1.7 0.0 0.00 0.00 0.11 100 1006.6
20260506203046 69 213 2.6 0.0 0.00 0.00 0.11 100 1006.6
20260506201542 69 192 4.3 0.0 0.00 0.00 0.11 100 1006.6
20260506200040 70 200 2.6 0.0 0.00 0.00 0.11 100 1006.7
20260506194533 70 217 3.5 0.0 0.00 0.00 0.11 100 1006.4
20260506193028 70 254 1.7 0.0 0.00 0.00 0.11 100 1006.6
20260506191524 70 217 4.3 0.0 0.00 0.00 0.11 100 1006.8
20260506190020 69 216 3.5 0.0 0.00 0.00 0.11 100 1006.9
20260506184515 67 227 3.5 0.0 0.00 0.00 0.11 100 1007.2
20260506183012 66 254 4.3 0.0 0.00 0.00 0.11 100 1007.3
20260506181506 65 213 5.2 0.0 0.00 0.00 0.11 100 1007.4
20260506180002 64 235 3.5 0.0 0.00 0.00 0.11 100 1007.6
20260506174558 64 199 4.3 0.0 0.00 0.00 0.11 100 1007.8
20260506173124 63 216 4.3 0.0 0.00 0.00 0.11 100 1007.7
20260506171549 63 229 4.3 0.0 0.00 0.00 0.11 100 1007.7
20260506170046 63 199 4.3 0.0 0.00 0.00 0.11 100 1007.7
20260506164541 62 196 4.3 0.0 0.00 0.00 0.11 100 1007.9
20260506163038 62 217 6.1 0.0 0.00 0.00 0.11 100 1008.2
20260506161532 62 190 5.2 0.0 0.00 0.00 0.11 100 1008.1
20260506160028 62 200 4.3 0.0 0.00 0.00 0.11 100 1008.1
20260506154523 62 174 4.3 0.0 0.00 0.00 0.10 100 1008.2
20260506153018 62 202 3.5 0.0 0.00 0.00 0.10 100 1008.2
20260506151513 62 121 3.5 0.0 0.00 0.00 0.10 100 1008.4
20260506150010 62 175 4.3 0.0 0.00 0.00 0.10 100 1008.8
20260506144505 62 198 4.3 0.0 0.00 0.00 0.10 100 1009.2
20260506143002 62 197 2.6 0.0 0.00 0.00 0.09 100 1009.1
20260506141557 62 190 2.6 0.0 0.00 0.00 0.08 100 1009.2
20260506140053 63 209 2.6 0.0 0.00 0.00 0.06 100 1009.1
20260506134548 63 171 2.6 0.0 0.00 0.00 0.05 100 1009.2
20260506133044 63 207 3.5 0.0 0.00 0.00 0.02 100 1009.6
20260506131548 64 190 3.5 0.0 0.00 0.00 0.02 100 1009.1
20260506130051 64 206 3.5 0.0 0.00 0.00 0.01 100 1008.9
20260506124530 65 180 3.5 0.0 0.00 0.00 0.00 100 1008.7
20260506123026 65 192 3.5 0.0 0.00 0.00 0.00 100 1008.8
20260506121522 65 223 2.6 0.0 0.00 0.00 0.00 100 1009.3
20260506120020 65 203 5.2 0.0 0.00 0.00 0.00 9 1009.3
20260506114516 66 199 4.3 0.0 0.00 0.00 0.00 20 1009.1
20260506113013 66 165 4.3 0.0 0.00 0.00 0.00 24 1008.9
20260506111511 66 234 5.2 0.0 0.00 0.00 0.00 23 1008.6
20260506110009 66 231 5.2 0.0 0.00 0.00 0.00 24 1008.5